Location: Israel
(31.9174°N, 34.8736°E)
Time: 02:31:28
(UTC+02:00)

ISS - Visible Passes

Search period start: 18 November 2019 00:00
Search period end: 28 November 2019 00:00
Orbit: 412 x 421 km, 51.6° (Epoch: 18 November)

Date Brightness Start Highest point End Pass type
(mag) Time Alt. Az. Time Alt. Az. Time Alt. Az.
18 Nov -2.0 17:53:03 10° S 17:55:07 19° SE 17:55:07 19° SE visible
19 Nov -1.8 18:40:22 10° WSW 18:42:12 29° WSW 18:42:12 29° WSW visible
20 Nov -3.9 17:51:55 10° SW 17:55:14 74° SE 17:56:14 42° ENE visible
21 Nov -2.9 17:03:51 10° SSW 17:06:55 34° SE 17:09:59 10° ENE visible
21 Nov -1.2 18:41:17 10° W 18:43:06 18° NW 18:43:06 18° NW visible
22 Nov -2.2 17:52:10 10° WSW 17:55:10 31° NW 17:56:56 19° N visible
23 Nov -3.3 17:03:24 10° SW 17:06:41 59° NW 17:10:00 10° NE visible
24 Nov -1.1 17:53:47 10° WNW 17:55:18 12° NNW 17:56:50 10° N visible
25 Nov -1.6 17:04:08 10° W 17:06:40 20° NW 17:09:12 10° NNE visible
